GFSNW_925_spd_096.txt.gz
Wind_Speed
14 11 9 5 2 2 4 5 2 2 3 3 3 3 4 2 6 9 11 9 12 12 14 16 17 18 14 1 9 11 9 5 7 15 19 28 19 14 17 4 5 7 2 3
14 11 8 5 3 1 7 4 3 2 3 2 2 5 6 3 6 10 12 11 11 15 15 15 13 15 16 4 5 5 6 4 5 4 13 21 19 16 11 14 2 6 5 4
14 10 8 5 3 1 3 1 0 4 6 2 5 3 3 7 9 12 12 16 18 12 12 14 8 17 9 12 9 19 11 6 10 10 10 12 16 15 3 2 4 4 6 13
13 11 7 4 3 1 3 1 3 2 2 4 3 2 3 8 12 8 16 7 13 15 17 17 17 10 14 13 15 6 3 7 9 23 29 13 10 11 7 7 5 3 4 15
11 10 6 4 6 3 2 2 2 2 2 5 4 6 3 8 11 10 10 10 17 16 16 16 17 14 13 8 7 4 3 3 10 9 4 21 12 8 16 9 9 9 11 7
14 9 6 7 6 2 3 2 0 4 6 8 6 4 5 8 4 8 11 13 15 15 10 15 18 16 19 17 14 6 4 1 2 11 15 19 15 10 11 19 20 15 12 18
11 10 9 7 6 3 5 7 5 2 4 4 2 4 8 9 5 4 11 10 11 9 19 18 16 18 18 18 16 5 6 11 1 3 4 9 11 17 19 21 18 18 16 20
11 11 8 5 5 3 2 5 3 3 4 4 3 6 8 10 1 6 5 8 8 10 8 5 8 2 4 3 4 4 6 8 3 3 9 9 14 18 15 11 11 17 16 17
11 12 8 6 6 6 1 1 3 3 3 3 8 6 7 7 9 7 3 10 4 2 3 4 3 4 3 3 4 6 7 6 3 2 6 3 9 18 16 8 4 14 14 15
13 11 9 7 6 6 5 2 1 3 2 3 7 7 6 7 10 8 7 17 8 2 3 4 4 5 7 4 4 7 5 6 7 5 5 6 17 22 15 2 5 10 11 12
12 11 11 9 6 6 7 2 1 3 3 8 7 8 9 9 8 7 13 7 7 6 7 6 5 4 6 4 11 7 8 6 6 7 5 4 23 9 7 5 7 9 10 10
13 12 11 10 8 6 7 2 2 1 2 6 17 18 16 13 9 6 6 2 8 5 5 6 4 4 5 10 3 12 5 5 3 6 4 8 11 11 10 10 9 11 10 9
14 12 10 9 9 8 8 2 4 1 2 7 7 3 6 3 4 4 3 4 7 6 5 3 3 3 7 6 5 3 4 12 3 6 8 10 11 11 11 10 10 11 11 10
14 11 9 9 9 9 9 7 6 5 3 3 1 3 2 2 4 4 6 7 8 7 5 2 3 3 7 4 3 5 4 8 7 7 9 10 12 10 9 9 9 11 11 12
12 10 9 9 9 8 8 11 8 8 2 3 6 15 3 1 3 4 5 6 5 5 4 2 2 2 4 2 2 5 5 4 4 4 5 9 7 8 8 9 10 12 11 12
10 10 10 9 8 7 4 2 10 12 5 3 3 6 7 5 4 5 4 6 2 1 2 3 2 1 4 3 3 4 5 5 5 4 10 13 9 8 10 10 11 12 12 13
11 9 9 8 8 10 4 2 4 10 8 2 3 3 1 3 4 4 3 3 3 2 3 2 3 2 4 2 3 6 5 5 6 7 9 8 2 6 9 12 14 15 16 16
12 8 7 7 7 7 7 6 4 10 5 3 2 4 3 6 2 2 1 2 1 2 3 2 2 2 2 2 5 7 6 6 7 7 8 10 10 9 10 12 13 11 11 13
10 7 6 5 3 4 5 9 9 6 3 2 3 3 2 3 3 2 2 2 3 3 2 2 1 2 3 4 7 5 3 3 3 6 8 9 9 10 10 10 11 11 10 12
10 8 4 2 5 18 19 4 2 2 2 3 4 5 5 2 1 2 3 2 2 2 4 2 1 2 6 5 7 4 3 7 5 5 6 7 9 9 10 11 12 12 12 12
5 3 2 7 23 3 3 3 3 4 3 4 3 6 6 2 2 2 2 1 1 2 2 2 3 3 6 7 6 5 5 7 7 9 10 12 11 9 10 11 14 13 12 11
8 7 6 6 2 2 4 5 3 4 4 5 3 3 4 0 1 1 1 2 2 2 1 2 2 4 10 9 8 7 9 10 11 13 14 15 14 14 14 13 12 11 10 10
8 4 4 3 3 5 5 8 4 4 4 3 3 1 1 3 2 1 1 2 3 1 2 0 3 9 8 9 8 8 11 12 14 15 17 18 18 17 14 13 11 10 10 9
2 4 6 4 4 5 4 3 3 1 3 4 3 3 2 1 3 1 3 2 2 2 3 2 5 9 8 8 8 10 10 13 15 15 16 15 13 13 13 11 10 9 9 7
3 3 5 7 1 4 3 3 3 2 4 5 3 2 2 2 2 3 3 2 3 2 2 3 8 10 9 9 10 10 9 11 12 12 12 12 11 11 10 8 7 7 7 5
3 3 1 2 3 3 1 2 3 2 4 4 1 1 2 3 2 3 3 2 2 2 3 6 9 10 8 9 9 12 13 13 13 12 11 11 10 9 9 7 6 5 3 2
3 2 1 1 2 3 2 2 2 4 4 1 2 4 3 1 2 2 2 1 3 5 6 6 9 9 10 12 13 13 14 14 13 12 11 9 8 9 6 7 6 5 6 3

GFSNW_925_spd_102.txt.gz
Wind_Speed
30 25 21 17 15 17 12 5 3 8 6 2 2 3 4 2 2 1 3 2 2 2 5 4 5 7 5 5 2 5 1 4 7 14 23 16 13 6 4 3 4 6 2 4
27 23 19 17 16 15 8 4 3 3 2 3 0 1 2 3 5 4 4 3 5 3 3 3 4 4 5 4 1 3 2 3 6 12 2 8 4 2 2 6 2 2 2 4
25 22 19 15 16 11 5 3 3 2 1 1 4 3 2 3 4 2 4 3 2 2 2 4 5 10 8 1 6 10 6 6 10 10 10 7 6 12 11 4 2 5 5 6
22 19 17 14 13 9 5 2 3 4 2 1 5 4 2 2 2 3 4 3 3 3 4 8 6 4 5 5 6 4 4 7 12 19 21 15 14 13 13 16 7 5 4 10
20 18 15 13 11 7 3 3 3 3 3 4 5 3 2 4 2 3 2 3 6 6 5 8 11 10 2 6 2 2 4 5 9 19 20 11 5 12 9 18 15 10 9 10
19 16 13 12 9 4 3 2 2 4 5 4 4 3 5 5 6 3 5 5 3 10 12 11 14 13 12 13 6 4 5 4 5 13 14 11 11 11 14 22 20 7 8 6
17 14 14 13 10 8 6 4 3 3 2 3 4 5 5 3 5 6 3 3 3 6 2 11 12 12 14 13 15 11 8 8 2 2 2 6 6 8 18 24 17 13 11 9
16 16 16 14 12 13 16 8 3 2 3 1 5 6 4 5 5 1 4 4 6 4 3 3 5 2 2 4 8 6 11 4 4 2 6 10 3 10 9 7 10 12 10 8
18 16 15 14 13 12 17 15 7 4 4 3 3 4 3 2 3 5 3 4 2 3 1 2 3 3 3 4 4 7 6 7 2 2 4 4 5 18 13 6 5 11 10 10
19 15 14 12 12 14 13 11 8 6 3 1 3 3 2 2 2 1 3 7 6 3 3 2 3 3 7 5 5 6 4 3 7 5 4 4 13 17 5 5 1 8 9 9
17 14 13 12 11 10 10 10 11 5 3 3 2 3 3 3 2 2 4 3 4 4 5 3 3 3 3 1 4 4 6 4 4 3 4 3 18 5 5 5 7 8 9 7
16 14 14 13 12 11 9 6 7 6 4 3 3 11 11 9 8 3 3 2 2 2 3 3 2 2 3 4 3 7 5 5 2 5 3 4 7 10 9 7 8 7 9 8
13 14 14 13 11 10 10 8 4 4 3 3 3 1 4 5 10 7 3 1 2 3 2 2 1 1 2 3 2 2 6 9 4 3 4 8 8 9 8 8 8 8 8 8
17 16 14 12 10 8 6 6 5 5 2 3 4 8 2 3 9 9 5 3 2 2 2 1 1 1 3 2 2 3 2 5 3 5 7 8 8 6 8 9 8 9 9 10
16 15 12 10 9 6 4 3 3 4 3 2 3 14 6 8 8 7 8 5 0 1 3 2 0 0 1 2 2 2 3 1 1 2 4 4 5 5 8 8 9 8 9 10
15 13 11 10 9 7 3 3 5 2 2 3 2 4 3 7 9 7 6 6 2 2 1 2 2 2 2 2 2 1 4 4 1 4 7 11 9 6 8 9 9 13 13 13
14 12 11 10 9 8 4 2 1 3 3 2 3 4 3 6 3 1 1 1 1 2 1 1 1 2 3 2 2 4 7 7 9 11 12 8 4 6 12 13 16 18 17 15
15 14 12 9 9 5 2 7 6 7 2 1 1 3 4 5 1 1 1 1 2 2 1 3 1 1 3 3 5 5 5 6 6 5 3 9 13 11 12 14 15 12 10 12
16 15 14 8 3 2 1 6 3 2 1 1 2 2 2 3 1 0 3 2 2 2 0 2 2 2 2 4 6 4 4 2 6 8 11 11 10 11 10 10 10 11 8 10
16 9 4 2 2 9 8 3 3 2 1 1 1 1 2 1 1 2 2 2 2 0 3 1 3 2 2 5 5 4 4 7 8 10 11 12 11 10 9 9 10 10 9 9
3 2 2 4 11 3 1 1 1 0 1 2 3 3 1 2 2 2 2 2 1 1 3 1 2 2 3 5 5 0 4 7 8 12 12 13 14 11 11 10 12 11 9 9
6 6 6 6 2 1 2 2 2 3 4 2 3 4 4 3 1 2 2 1 2 2 1 1 1 1 8 7 7 7 13 16 14 18 17 17 16 15 15 13 12 11 12 11
5 2 2 2 1 2 4 5 2 1 2 3 1 1 2 2 3 2 2 1 3 1 0 2 1 6 7 9 9 10 14 18 19 17 18 19 16 15 18 18 16 15 14 11
1 2 4 3 3 4 4 3 4 4 3 4 3 1 2 1 3 1 1 3 1 2 1 4 4 9 9 9 9 11 6 11 13 14 18 19 20 19 18 17 16 15 13 10
1 2 4 5 3 1 1 1 1 3 3 3 2 2 2 1 3 1 0 2 3 4 3 2 5 10 10 9 8 9 8 10 12 17 18 21 21 19 17 14 12 11 11 10
1 2 2 1 2 0 1 2 1 1 2 2 2 2 3 2 3 3 4 3 4 2 1 3 7 10 7 8 8 11 15 17 18 20 21 20 19 18 15 13 10 9 8 7
2 1 0 1 1 2 1 1 3 1 3 1 1 3 6 1 1 2 1 3 2 1 3 4 8 11 8 10 14 16 18 19 21 20 18 17 15 14 12 11 11 10 8 5

GFSNW_925_spd_105.txt.gz
Wind_Speed
48 40 34 31 31 29 19 6 3 11 10 2 2 3 4 4 4 3 2 2 1 2 2 3 4 6 6 4 1 4 3 2 6 11 18 16 11 8 6 3 4 4 1 3
38 34 31 28 31 30 11 3 3 3 4 3 1 2 4 4 3 2 2 2 3 2 2 2 5 5 4 4 3 4 3 2 5 10 5 7 3 2 11 3 2 3 3 3
36 33 30 27 28 22 6 3 3 1 1 1 4 5 3 4 2 3 2 0 2 0 3 5 4 3 4 2 4 15 4 4 8 9 12 9 9 14 19 11 3 5 4 3
34 29 25 24 26 17 6 2 2 4 3 2 4 4 2 4 3 2 2 2 3 3 3 3 5 6 3 4 6 2 5 7 11 17 19 18 13 11 14 5 5 4 5 6
29 25 22 23 20 14 3 3 4 3 2 4 6 3 5 5 2 4 3 3 4 3 5 6 5 6 3 5 3 4 2 4 6 18 15 2 14 19 17 11 12 10 12 8
26 22 20 20 16 9 3 2 3 4 5 4 4 4 6 7 5 3 5 5 1 4 10 13 16 14 10 11 5 4 4 3 3 5 14 11 10 10 14 11 16 9 5 6
23 20 19 14 11 6 7 4 4 4 2 3 4 6 3 6 5 6 3 4 3 5 5 7 8 12 15 14 15 10 7 4 3 4 8 4 6 6 12 17 13 12 11 9
21 21 19 16 14 11 15 6 3 3 3 2 3 8 5 5 3 1 3 4 5 5 4 3 5 1 3 7 8 3 10 4 2 2 7 7 2 7 6 5 6 11 8 5
22 22 18 17 16 16 19 14 9 5 5 1 1 4 3 3 1 2 3 3 5 3 1 1 3 3 3 2 2 7 6 3 2 2 4 3 3 13 10 5 3 9 9 8
22 20 19 16 13 11 11 12 7 6 4 2 2 3 4 4 3 1 3 5 5 4 3 2 2 3 4 4 5 5 4 3 6 4 4 5 10 15 5 3 1 7 8 9
20 18 18 17 15 12 13 11 11 3 3 1 2 2 3 2 2 3 2 2 3 3 3 2 2 2 3 2 3 5 5 4 4 3 3 4 15 3 3 5 7 7 6 6
18 17 16 15 14 12 12 7 9 9 5 3 1 3 5 3 6 4 1 5 2 3 2 2 2 2 3 2 2 5 4 4 2 5 3 4 6 9 9 6 8 5 8 6
18 17 17 15 13 10 14 9 5 6 3 3 4 4 3 6 6 2 3 1 2 1 2 2 1 1 1 3 2 2 4 6 3 1 4 7 7 7 9 8 8 8 7 7
18 17 16 15 15 14 13 10 10 7 3 3 3 5 1 2 6 4 2 3 2 2 2 1 1 1 3 2 2 3 2 5 4 5 5 6 7 6 7 9 9 10 10 8
18 16 15 13 12 12 13 14 12 11 5 3 2 7 6 5 8 7 3 1 2 2 2 2 1 1 1 2 2 2 2 1 2 2 6 4 3 5 6 7 7 7 8 9
16 15 13 12 10 10 3 3 9 6 5 3 2 3 3 4 6 4 3 1 2 2 1 1 2 1 2 2 1 0 2 2 1 4 4 9 8 6 7 8 9 11 11 10
15 14 13 12 10 7 6 4 3 3 3 3 2 3 3 4 2 2 1 2 1 2 1 1 1 2 3 2 3 4 6 6 11 13 15 9 7 5 9 12 12 13 11 11
16 15 14 13 12 9 8 12 8 5 4 3 2 1 2 3 1 0 1 1 2 2 1 1 1 1 2 2 3 9 8 8 8 4 2 8 13 12 10 14 12 9 7 9
18 16 15 7 4 4 3 7 5 5 3 2 2 3 2 3 1 1 2 2 1 1 1 1 2 2 1 5 9 10 8 5 8 10 13 12 11 10 9 9 8 8 7 8
18 7 4 2 2 11 6 4 3 4 3 1 1 1 1 2 1 2 2 1 1 1 2 2 2 1 1 4 6 6 6 11 12 12 11 10 10 10 10 7 7 9 8 9
3 2 2 5 9 3 2 2 1 2 2 0 2 3 1 1 2 2 1 2 0 1 2 2 2 2 3 5 6 4 7 10 10 7 8 11 13 11 10 8 10 10 10 10
5 8 7 4 2 1 1 1 1 1 2 1 3 3 3 2 1 2 1 1 2 3 1 1 2 2 7 7 6 6 6 10 11 17 15 15 14 14 14 12 12 12 13 12
4 3 2 1 1 2 3 3 1 1 1 2 1 1 1 2 3 2 2 2 3 2 1 2 1 6 7 8 7 7 9 15 17 16 16 17 16 16 17 17 16 16 14 12
1 2 3 1 2 3 3 4 3 3 2 3 2 1 2 1 3 1 3 3 1 3 1 4 2 7 8 8 7 9 6 8 12 13 17 18 19 17 16 17 16 15 13 11
2 0 2 4 3 2 2 0 1 2 2 3 2 3 2 2 3 2 2 2 2 4 4 3 3 9 9 8 6 7 7 9 11 16 17 18 20 20 18 14 12 10 10 9
1 1 1 1 1 1 1 1 2 2 2 2 2 2 2 1 3 2 4 3 4 3 2 2 5 8 7 7 7 9 14 16 17 18 20 20 18 18 16 13 11 10 7 6
3 1 1 1 0 2 1 1 1 2 3 1 1 3 5 2 1 2 3 4 2 2 1 2 6 10 7 8 11 14 16 17 18 19 19 17 15 13 13 11 12 9 7 4

GFSNW_925_spd_108.txt.gz
Wind_Speed
60 61 56 54 46 42 32 7 4 14 18 3 2 3 5 4 5 4 3 3 3 4 4 4 4 5 5 5 4 1 2 2 5 7 10 12 7 4 3 1 2 4 2 2
62 58 55 50 50 44 12 4 3 4 3 4 3 2 3 3 3 2 2 3 2 2 4 2 5 2 3 4 3 3 3 0 4 7 4 0 3 1 3 5 6 5 3 1
58 54 52 50 51 30 10 4 4 1 1 1 4 5 4 4 4 3 3 3 3 3 3 3 2 3 2 2 4 7 1 5 7 6 9 9 8 12 12 14 4 3 2 4
52 53 49 49 44 29 5 2 4 5 5 3 4 3 3 5 4 2 2 1 3 4 2 3 4 2 3 3 4 2 7 6 8 15 17 13 5 6 14 5 4 3 6 6
48 42 40 40 37 19 3 4 4 3 3 7 7 3 6 5 4 5 3 3 5 5 5 5 4 2 3 6 3 5 4 2 1 13 12 4 4 10 8 11 9 10 12 7
42 39 37 32 29 16 3 2 2 4 2 4 5 5 6 5 6 2 4 5 3 4 10 10 11 10 7 5 3 3 3 3 2 2 18 8 5 6 9 9 15 5 4 5
35 32 31 30 25 9 4 3 4 4 2 4 4 6 4 6 5 7 2 5 3 2 4 5 4 5 6 10 15 9 5 4 3 4 6 3 3 5 11 15 11 10 9 7
30 28 26 21 18 10 9 6 4 3 3 3 5 9 6 6 3 1 3 4 4 2 2 2 3 1 2 7 8 5 11 6 3 3 3 4 6 4 3 5 6 8 4 3
30 27 24 19 15 16 18 14 9 5 6 1 5 6 3 4 2 1 3 1 2 3 2 1 2 2 2 2 1 3 4 3 1 3 3 3 2 8 5 6 2 5 5 5
27 25 24 21 18 16 14 11 8 7 4 1 3 4 4 4 3 2 2 3 4 2 2 2 2 1 2 2 4 4 4 3 3 3 4 4 6 11 6 2 3 5 7 7
26 24 22 20 17 14 14 11 8 5 3 1 3 3 4 3 2 3 1 3 3 3 3 2 1 1 1 1 2 4 4 3 3 3 3 3 11 1 1 5 6 8 8 6
25 23 21 19 16 14 16 8 13 14 5 4 3 5 3 2 6 5 1 3 2 3 3 1 1 2 1 2 0 4 2 2 1 4 3 3 5 9 7 6 7 5 8 7
23 20 19 17 14 11 17 14 9 10 4 4 4 4 5 6 4 3 4 1 2 1 2 2 1 3 1 1 1 2 2 2 3 2 3 6 6 8 7 8 9 9 9 8
21 20 19 17 17 17 16 13 10 9 3 4 2 3 3 1 5 4 6 5 3 3 2 2 1 2 3 1 3 2 2 3 5 4 6 7 7 5 9 10 9 10 10 9
20 19 18 19 20 20 24 25 19 12 5 3 2 2 7 3 6 5 4 5 2 2 2 2 2 1 1 0 2 2 2 2 3 3 5 4 6 5 8 9 7 7 9 9
19 17 16 15 14 10 6 4 12 13 5 4 2 3 3 3 3 2 3 1 2 2 2 0 0 2 2 2 1 2 0 1 1 4 3 8 11 6 8 9 9 11 11 10
16 15 15 13 9 9 7 3 3 6 5 3 3 2 2 2 3 2 2 3 2 2 1 1 1 2 3 2 1 3 4 7 11 13 13 8 2 5 10 14 13 14 13 12
17 17 18 19 16 13 11 14 8 5 7 3 3 1 1 2 1 1 2 2 2 3 1 1 1 1 2 1 2 6 6 8 8 4 3 7 14 13 12 15 13 10 8 9
17 17 14 7 7 4 4 6 6 9 5 3 2 4 3 3 1 1 2 2 2 2 1 1 1 1 2 5 11 10 10 6 6 8 11 12 12 11 10 9 8 8 7 9
15 4 5 3 3 9 3 1 3 4 3 3 2 1 2 2 1 1 2 2 1 0 0 2 2 1 1 2 6 6 7 10 12 12 10 11 10 10 10 8 8 8 8 9
3 3 2 4 4 2 2 2 3 2 3 1 1 2 2 2 3 2 0 1 1 1 2 1 2 2 2 5 6 6 8 13 9 4 7 10 11 11 9 8 9 11 11 10
5 11 6 3 2 1 3 2 1 1 1 1 3 2 2 0 1 2 0 2 1 2 1 0 2 1 7 9 7 6 11 10 7 12 12 14 14 15 14 11 11 13 13 13
5 4 2 1 2 3 3 2 1 1 2 2 1 1 1 2 3 2 2 3 3 2 1 2 2 5 6 7 6 7 8 12 14 13 14 16 15 15 17 16 15 17 15 13
2 2 3 2 1 2 3 3 3 3 2 2 2 2 2 1 3 1 3 3 2 3 1 4 2 6 7 6 6 8 7 9 12 13 16 17 18 16 17 19 19 18 16 13
3 2 2 1 2 2 2 2 1 1 2 2 2 3 2 3 2 1 2 3 2 4 4 3 2 7 8 7 5 7 7 8 10 15 16 19 20 21 19 17 15 13 13 11
2 2 2 1 1 1 2 2 2 1 2 1 3 2 2 1 3 1 3 3 3 4 2 2 3 6 6 7 6 8 12 14 16 18 21 22 22 22 20 16 12 10 9 9
3 2 2 1 1 1 1 1 1 1 2 2 2 3 4 2 1 2 4 4 3 3 1 2 5 7 7 7 11 13 16 17 19 20 20 21 19 19 17 13 12 10 7 5

GFSNW_925_spd_114.txt.gz
Wind_Speed
37 38 32 31 55 54 30 7 4 25 28 6 4 9 9 7 12 7 3 3 3 8 9 7 7 6 3 7 9 5 5 4 7 9 4 9 12 10 12 9 6 7 6 6
41 41 37 46 63 55 18 4 4 15 17 6 11 9 10 10 12 12 8 7 4 3 8 6 8 3 2 7 9 6 7 6 4 6 4 7 4 9 10 7 8 14 9 1
45 44 42 63 68 52 19 5 6 3 3 6 16 15 18 13 7 9 5 5 5 8 7 6 5 8 6 5 6 3 4 6 9 8 7 3 5 6 9 10 7 12 9 5
50 48 44 71 70 52 21 5 6 12 12 13 15 18 18 16 10 5 8 4 9 10 7 9 7 9 5 5 7 6 3 7 9 14 16 13 12 12 11 7 9 9 3 6
52 49 52 75 67 51 8 6 6 13 14 19 17 20 17 20 8 9 9 9 13 11 8 9 9 10 7 5 9 10 7 7 2 10 14 15 5 4 8 4 3 5 12 8
51 52 69 73 60 44 5 5 14 11 16 20 17 18 17 15 11 5 6 13 9 11 10 5 2 6 3 3 6 10 5 6 3 2 1 9 6 2 3 4 5 1 3 7
49 63 73 67 56 31 19 19 16 6 13 17 18 23 13 16 18 7 9 12 9 5 7 4 2 6 9 11 12 9 3 6 3 2 7 5 5 5 8 8 6 8 12 10
70 72 61 48 37 24 29 16 8 5 9 13 16 18 17 15 12 8 7 8 4 8 4 3 4 4 4 9 14 15 10 6 3 4 9 4 8 6 4 1 4 1 6 8
67 60 51 42 35 39 27 13 12 7 10 13 22 20 21 15 9 8 5 5 6 5 3 4 5 5 1 6 6 10 9 12 6 6 4 4 6 5 2 1 4 3 4 6
61 53 43 39 39 32 24 10 18 12 6 3 20 12 15 8 10 6 7 8 6 4 5 5 5 3 1 4 5 5 4 5 13 10 4 4 4 1 4 4 4 5 5 6
49 42 33 31 28 24 17 11 10 7 4 6 4 5 8 7 9 8 9 6 4 5 6 4 3 2 2 2 1 1 3 3 4 3 3 4 4 5 4 7 9 9 10 10
36 30 24 26 22 22 26 10 17 21 7 6 11 15 11 6 6 7 7 1 6 3 3 2 3 3 2 3 3 2 3 2 1 4 4 4 6 10 11 9 13 12 12 11
31 28 27 24 23 21 31 20 23 27 9 9 6 9 11 11 7 2 4 2 3 4 1 4 2 3 3 3 2 3 3 3 1 5 4 7 8 8 10 11 12 11 11 11
31 28 25 23 24 35 35 18 11 14 6 6 5 4 7 6 10 10 6 10 6 6 3 2 2 2 2 3 2 1 2 6 6 4 6 8 6 8 12 13 13 13 11 11
31 30 28 28 31 34 35 28 15 10 3 6 8 13 6 7 9 12 11 9 6 4 3 2 2 2 3 2 2 3 4 3 3 2 12 1 13 11 14 14 13 12 13 12
38 34 31 30 31 29 19 4 13 14 24 6 4 3 6 7 8 9 8 5 3 1 1 3 2 2 2 3 2 3 3 3 1 4 8 9 15 14 14 14 13 14 13 14
25 23 22 18 15 15 8 5 4 11 9 4 5 5 3 3 4 3 3 3 3 2 2 1 3 3 2 2 2 8 6 6 11 14 17 14 15 9 14 16 15 15 14 13
34 33 34 31 29 19 13 16 12 9 9 3 4 4 6 1 4 3 1 2 2 2 2 2 1 3 1 2 6 9 10 11 13 12 3 13 14 16 15 17 16 13 12 14
23 21 17 13 12 5 4 9 15 15 7 3 3 7 4 3 3 2 2 1 1 0 1 2 2 2 2 2 12 13 15 8 11 8 12 16 17 15 14 13 13 12 12 14
10 7 6 4 3 3 4 4 3 4 3 3 3 1 5 3 3 2 2 0 2 2 2 2 2 0 3 4 9 12 12 11 14 16 16 16 16 15 15 13 13 13 14 15
5 3 3 4 3 2 3 3 3 2 3 3 3 4 7 1 2 3 1 2 0 2 3 2 2 2 4 8 11 13 9 11 10 7 13 15 16 15 14 13 14 16 16 15
6 12 7 2 2 3 5 3 2 2 3 3 6 5 3 3 1 2 2 2 2 1 1 2 2 3 7 12 12 13 10 12 8 12 15 16 17 18 17 17 16 16 15 16
5 4 3 3 4 5 3 3 3 3 3 4 5 4 2 3 1 3 1 2 2 2 2 2 2 5 8 10 11 11 14 12 14 15 16 17 17 16 17 17 14 16 15 15
4 3 5 4 3 4 3 3 4 3 4 7 6 3 2 1 2 1 2 2 1 2 2 1 2 6 9 8 9 12 12 10 13 15 17 17 17 15 14 16 18 19 17 16
3 3 4 4 1 2 2 3 4 3 4 4 5 3 2 2 2 1 2 2 2 2 1 2 2 7 10 10 10 10 10 9 12 15 15 16 16 16 15 16 15 16 18 17
3 5 4 1 1 5 4 4 4 1 2 2 2 3 3 2 1 2 1 2 1 1 1 2 3 7 8 9 9 10 13 13 14 14 15 16 16 17 18 15 15 17 17 17
3 3 3 3 4 4 3 2 2 1 1 2 0 2 2 3 2 1 1 1 2 2 2 1 2 8 9 8 10 11 13 14 15 15 15 15 15 18 17 15 12 12 12 12

GFSNW_925_spd_117.txt.gz
Wind_Speed
35 33 32 30 21 47 30 7 4 21 34 6 3 12 11 9 12 12 8 8 12 10 10 11 12 10 6 8 5 6 9 5 11 16 11 9 14 16 15 11 13 7 13 7
39 36 36 34 30 57 18 4 4 12 18 7 14 13 17 11 14 17 12 10 9 7 10 8 10 4 5 5 9 6 6 7 7 8 7 10 9 14 14 9 9 15 9 2
43 41 42 40 40 55 24 5 5 2 3 4 14 20 16 17 16 14 12 10 8 10 8 9 5 9 6 8 11 6 2 8 9 11 10 5 5 7 9 12 11 14 12 2
46 45 48 45 48 55 23 4 6 11 11 12 13 17 15 21 12 14 14 10 16 13 11 13 11 9 8 7 9 6 8 10 10 15 16 15 13 12 12 11 15 10 7 2
49 50 52 49 55 56 17 6 6 12 10 20 19 19 16 23 19 17 20 12 14 12 14 11 7 13 11 8 12 13 12 7 7 11 16 15 15 15 13 9 8 5 2 4
52 52 56 52 58 57 7 11 12 13 15 22 17 19 20 23 17 13 15 14 12 13 12 6 2 6 11 6 9 13 10 5 6 7 3 4 7 9 8 3 3 5 9 8
58 56 57 56 68 69 14 18 12 6 7 17 22 23 22 20 18 8 9 13 14 4 8 6 2 5 8 8 9 9 6 7 6 5 4 8 4 4 4 5 4 7 11 10
59 60 57 58 73 69 26 20 15 4 6 19 22 21 20 16 12 8 10 9 6 10 10 6 6 5 4 12 16 14 9 5 4 4 9 6 8 7 7 7 6 6 11 12
56 54 56 57 68 64 30 27 8 4 9 16 23 22 22 14 14 11 10 7 9 8 6 4 6 7 8 7 6 16 12 12 9 5 7 3 9 11 5 6 6 10 9 12
49 49 53 58 58 46 31 21 12 6 5 7 17 19 20 18 15 10 15 11 8 9 6 6 8 7 4 6 9 8 4 4 14 12 8 4 6 6 5 5 5 9 9 9
48 49 52 55 51 41 36 18 17 9 4 12 16 19 20 15 11 10 14 8 7 8 7 6 5 3 2 3 2 5 8 5 7 10 6 5 2 7 4 6 8 10 12 12
60 60 57 52 50 37 36 15 16 20 8 12 19 19 9 1 7 8 14 2 17 6 8 4 2 2 2 3 3 4 4 3 4 5 4 4 3 7 10 9 12 12 14 13
57 53 50 47 40 36 21 20 25 24 13 11 10 10 11 10 9 7 7 4 6 4 2 3 2 2 4 4 3 4 3 2 1 6 6 6 6 6 9 12 13 14 14 14
50 48 44 42 37 34 37 28 16 25 7 7 5 8 8 7 8 5 2 10 4 6 4 2 2 2 1 2 2 2 2 6 5 4 7 8 6 8 11 13 14 14 13 13
41 38 42 46 42 36 31 22 16 12 4 8 10 16 10 11 11 11 11 11 9 6 5 2 2 1 3 2 4 4 6 3 4 1 14 4 14 12 14 15 13 13 14 13
43 43 44 46 40 35 27 6 17 27 33 9 5 8 8 10 10 10 8 5 2 2 2 2 3 3 2 3 2 2 4 3 2 3 12 10 15 14 15 14 14 15 14 16
39 35 30 26 21 17 7 6 10 15 16 5 6 6 4 9 7 4 5 3 2 2 2 3 2 2 3 2 2 7 6 5 8 12 16 14 16 10 15 16 16 17 16 15
40 41 39 34 31 23 17 15 12 7 10 4 4 5 7 6 5 4 1 3 3 1 2 2 3 4 3 2 6 8 8 10 11 15 2 14 15 18 16 17 18 14 12 14
32 31 26 19 13 6 6 14 15 14 7 4 3 8 4 4 4 4 3 2 2 2 2 1 2 3 3 2 11 11 13 10 13 7 14 17 17 17 16 15 15 14 13 14
16 10 8 4 4 4 3 4 3 4 3 4 5 6 6 7 6 2 3 2 3 4 2 2 3 1 4 5 9 12 13 9 13 14 15 17 16 16 16 15 14 14 15 16
5 4 4 8 4 2 3 3 3 3 4 4 2 8 8 3 4 5 1 2 1 3 3 3 4 3 5 7 10 12 9 11 11 9 12 14 15 14 13 13 15 16 17 15
9 14 9 4 2 2 4 3 2 1 4 5 7 7 8 4 1 2 3 2 2 1 3 2 2 3 9 11 13 11 10 11 8 10 13 15 16 17 16 16 16 17 16 17
6 5 4 1 3 3 1 4 3 4 4 5 7 6 4 3 2 2 2 3 1 4 1 2 3 6 9 10 11 10 11 11 11 12 15 16 16 16 15 15 16 17 16 14
4 3 5 4 3 4 3 5 6 2 6 8 6 4 3 2 3 1 2 1 2 3 3 3 5 6 8 8 10 11 10 9 10 12 13 14 15 16 16 15 16 18 16 14
4 4 4 4 3 5 3 4 4 4 6 6 6 4 3 3 3 1 3 2 3 3 1 2 3 7 9 9 8 10 10 9 10 14 15 15 16 16 16 15 15 15 16 15
4 6 4 4 7 6 6 6 5 5 4 4 3 3 3 2 2 2 2 2 1 2 2 2 3 5 8 8 9 10 13 14 15 15 16 16 17 17 18 16 14 15 15 15
4 3 3 4 6 5 3 3 5 1 2 2 1 3 2 2 2 2 1 2 2 2 2 2 4 6 8 8 10 13 15 15 16 16 16 16 16 18 18 16 14 13 12 12

GFSNW_925_spd_123.txt.gz
Wind_Speed
27 25 25 25 23 20 18 8 5 13 26 3 1 8 6 10 14 13 11 5 3 5 5 4 3 10 2 6 7 6 2 2 2 5 9 13 6 6 6 4 6 5 6 5
32 31 28 27 28 27 14 5 2 11 7 8 5 5 11 9 7 14 2 8 5 3 4 3 4 7 5 7 5 5 2 1 2 7 5 4 3 3 6 3 2 9 4 4
35 34 33 31 29 29 21 4 4 1 1 0 9 9 15 15 10 18 7 8 8 3 5 4 2 6 1 4 6 7 7 2 6 6 3 5 6 10 6 3 3 3 6 5
38 38 36 36 35 33 24 4 4 7 6 11 10 11 8 18 13 17 12 14 8 6 5 1 4 6 5 4 7 3 4 3 1 4 8 11 12 12 12 7 9 4 5 4
43 42 41 39 40 36 28 7 4 4 5 10 14 7 11 15 18 8 12 8 8 8 6 6 3 6 4 5 5 4 1 2 3 5 11 14 17 14 13 10 9 2 6 3
40 43 44 45 45 39 16 13 14 7 8 11 13 18 18 13 8 7 10 8 7 6 6 4 6 5 3 9 8 6 5 4 2 5 7 6 8 13 12 8 6 4 6 5
42 45 47 48 50 47 30 22 11 4 5 13 19 18 18 17 15 9 7 7 8 4 10 9 7 7 2 7 8 9 5 5 2 3 5 4 5 3 4 4 5 10 12 13
46 46 48 50 52 47 36 19 12 4 5 12 14 17 21 17 11 3 1 3 6 9 7 4 4 2 2 4 6 8 6 4 2 2 3 3 1 2 3 3 5 9 13 15
50 48 50 52 51 48 40 41 18 3 3 5 15 18 11 12 10 5 3 1 7 7 3 3 6 5 5 5 4 11 7 5 4 2 3 3 3 4 5 1 4 12 17 16
56 53 52 53 50 49 42 23 37 4 3 4 7 12 12 8 6 6 5 4 3 5 3 4 3 4 7 5 7 8 6 5 12 6 4 4 5 6 7 1 4 13 16 16
66 57 54 53 49 49 44 31 26 9 3 1 6 7 7 7 8 9 9 5 3 2 5 4 4 3 4 4 5 7 8 6 4 4 4 7 3 4 4 3 4 7 13 13
67 61 57 53 48 47 42 18 29 13 2 1 4 2 19 21 8 8 9 5 7 4 4 3 3 1 1 3 2 6 4 5 4 4 2 1 2 3 1 4 5 3 8 12
63 60 56 51 46 45 44 24 24 10 3 3 4 4 14 12 20 28 4 2 6 5 5 3 2 2 1 1 4 4 1 1 3 3 4 5 3 3 5 7 10 10 13 15
57 55 51 47 43 43 43 29 20 12 4 3 2 5 6 3 12 14 8 6 9 5 4 2 2 2 2 0 1 3 4 5 6 2 4 4 2 6 9 11 14 14 13 14
52 51 48 45 42 42 38 35 18 18 5 3 2 5 2 4 10 14 15 11 5 3 2 2 2 2 3 1 2 2 2 5 4 5 10 5 6 9 13 14 13 13 15 13
49 47 47 44 42 43 28 4 7 17 13 4 3 3 3 12 7 7 6 4 2 3 3 2 2 1 2 2 2 2 3 1 2 3 9 4 13 11 12 14 13 15 14 16
49 48 47 50 48 38 6 3 19 20 13 3 3 2 4 12 9 1 2 1 2 3 2 2 3 2 3 1 2 2 4 3 5 13 14 9 11 7 11 15 16 19 18 19
54 53 51 47 34 25 13 25 34 29 6 4 3 3 3 3 2 2 1 1 1 2 2 2 3 2 1 2 4 4 6 8 9 7 0 9 11 15 12 17 18 13 12 15
56 55 42 30 21 4 10 28 28 15 5 4 3 4 3 1 3 2 2 2 2 2 1 2 4 2 3 6 10 9 8 8 9 6 10 12 15 13 13 13 14 13 9 13
47 36 5 3 6 31 21 7 2 4 3 2 3 3 3 5 2 2 3 1 3 1 3 2 2 2 3 6 7 8 8 8 10 11 12 13 13 12 13 14 12 12 14 18
5 2 3 13 11 3 3 2 3 2 2 2 2 6 7 3 4 3 2 2 1 2 3 4 2 1 2 8 8 7 7 7 9 12 8 12 12 11 9 11 14 18 19 18
12 15 11 5 2 2 4 1 1 3 4 2 5 5 4 2 4 3 1 2 3 1 1 3 2 1 6 7 9 8 7 7 7 15 12 14 15 16 13 14 13 17 23 29
8 6 4 3 3 5 4 4 2 3 1 2 3 4 4 3 3 2 3 3 2 2 3 3 2 3 5 6 6 6 8 10 10 12 16 18 14 15 14 16 22 27 26 28
3 4 5 3 3 2 1 2 3 3 5 7 5 3 3 2 3 1 4 2 2 1 1 2 2 4 4 5 5 9 5 8 8 9 14 14 17 17 20 25 26 27 23 24
4 4 4 4 1 1 2 2 5 5 4 4 3 4 3 2 3 2 3 1 3 4 2 2 1 6 6 7 7 8 8 8 8 13 14 16 19 19 17 22 24 24 24 24
3 6 4 1 4 5 5 6 4 3 2 3 4 3 3 0 4 2 4 5 1 2 2 1 2 4 5 7 6 6 12 12 13 14 16 17 17 18 18 19 21 22 25 25
4 3 2 2 2 5 4 3 2 2 3 1 3 3 2 1 1 2 3 2 2 2 2 1 1 4 7 8 8 11 14 14 15 16 16 16 19 22 20 15 17 21 22 23

GFSNW_925_spd_126.txt.gz
Wind_Speed
30 26 24 23 19 18 16 7 4 14 30 5 2 6 8 5 8 4 7 3 4 5 3 6 7 9 1 7 8 8 2 4 2 6 5 4 3 4 5 5 6 4 6 9
31 29 27 24 21 22 12 3 3 11 6 7 7 3 13 4 3 12 4 4 6 6 3 3 2 4 4 5 4 8 6 1 2 7 5 3 4 0 2 3 2 7 6 6
33 31 28 26 25 27 21 3 3 1 2 1 15 10 11 13 7 11 5 3 4 3 4 3 2 2 4 4 3 6 8 4 6 7 4 3 3 5 5 3 2 3 6 4
34 34 34 31 29 29 24 4 4 5 8 9 16 10 6 15 12 10 4 6 9 6 3 5 3 2 2 5 3 4 5 5 3 3 4 4 5 11 13 8 12 6 5 7
36 36 36 35 34 31 22 5 4 1 3 12 16 13 14 15 14 8 7 13 8 8 7 10 8 9 4 5 2 3 1 2 3 4 7 8 12 17 15 16 11 6 4 6
38 38 40 40 39 36 6 15 5 4 8 12 12 18 26 16 6 6 17 8 5 9 9 5 5 6 8 9 8 5 5 4 3 4 4 7 8 10 11 4 7 7 9 6
40 39 40 42 44 43 16 14 3 3 4 12 20 23 20 14 13 10 4 10 7 5 8 6 6 7 6 9 5 6 6 5 3 3 3 4 6 3 4 6 2 4 5 14
44 44 42 41 48 46 31 19 10 3 3 13 11 14 16 13 11 4 6 4 7 9 5 4 4 4 3 3 6 6 6 4 2 2 3 6 3 3 4 4 4 8 12 13
48 47 43 41 50 48 39 30 20 3 4 9 12 13 9 9 10 4 1 4 4 3 3 3 5 4 4 4 2 7 6 4 4 3 3 4 4 2 4 2 5 12 14 16
51 49 45 44 49 49 40 22 39 6 2 3 9 7 12 6 5 4 4 5 4 5 3 3 3 4 7 5 6 5 4 2 10 6 4 6 3 5 4 4 4 12 16 17
54 52 48 47 48 48 43 34 27 22 2 3 1 3 5 5 5 5 6 4 1 3 3 4 4 3 5 3 4 6 8 7 4 4 4 10 2 4 6 3 3 12 11 14
58 55 51 49 49 48 45 15 24 29 7 3 2 4 2 4 8 6 5 5 6 5 3 3 3 2 2 5 4 3 5 6 4 7 5 1 2 3 2 4 6 5 12 12
60 58 54 49 50 46 47 20 27 24 2 3 2 3 6 11 20 28 5 0 6 3 4 3 2 3 3 4 3 3 3 3 3 2 4 4 3 2 3 2 4 5 9 18
62 58 53 51 48 45 45 25 24 25 2 2 1 4 5 10 16 11 5 11 6 5 4 3 3 2 3 3 4 3 4 5 5 2 2 1 5 3 6 7 10 12 11 14
62 60 54 51 45 43 36 24 23 28 1 2 1 3 5 3 6 7 8 9 5 3 3 2 3 2 3 1 1 2 4 6 4 5 7 4 4 8 11 11 9 12 15 12
61 58 52 46 44 44 30 2 20 11 13 3 2 2 4 1 7 3 1 5 3 3 3 2 1 2 3 2 3 2 3 3 1 3 5 2 6 8 6 10 12 11 13 16
56 52 50 49 48 41 12 5 11 32 11 3 3 2 1 2 4 1 0 2 2 3 3 2 3 0 3 2 2 3 4 4 3 7 10 5 7 6 9 13 17 19 17 19
53 51 49 46 40 26 5 6 24 28 8 2 3 2 2 4 2 3 3 2 2 3 3 2 3 2 2 2 4 2 4 6 5 7 1 7 7 12 11 17 18 14 12 15
51 48 46 36 21 4 5 30 23 16 3 3 2 4 4 3 4 2 3 2 2 2 2 3 4 1 3 6 6 7 7 8 7 4 6 10 11 13 12 12 13 14 12 12
54 42 8 3 6 17 20 9 0 2 2 2 2 2 3 5 2 1 3 1 3 2 3 3 2 3 2 2 5 7 8 7 9 8 7 10 11 14 12 11 9 11 11 18
8 3 3 18 31 8 2 3 4 3 2 1 3 4 6 2 4 2 0 2 1 2 3 4 2 3 2 4 5 5 6 7 7 5 7 9 11 11 10 11 12 15 19 19
13 19 20 6 2 3 4 1 1 3 5 1 7 5 7 2 3 3 1 2 2 2 1 3 2 3 5 6 4 5 6 6 7 11 8 11 12 14 14 14 16 18 20 24
22 5 4 3 3 5 4 4 1 2 2 3 4 4 3 3 4 3 3 3 3 1 3 3 3 3 6 6 5 4 4 7 9 7 14 17 16 17 14 14 20 24 22 22
4 4 5 3 2 0 2 2 3 2 4 9 5 3 3 1 4 1 4 2 2 3 0 4 2 4 5 4 6 7 4 7 8 9 14 13 13 14 19 24 27 26 21 23
4 4 3 2 2 2 1 2 2 2 4 4 3 4 3 2 3 2 3 3 2 5 4 2 1 2 6 5 5 8 7 7 7 11 9 12 15 16 16 20 25 26 25 24
3 5 3 2 3 5 4 4 7 3 3 3 4 3 4 1 4 2 4 5 5 3 2 2 2 3 4 5 5 5 9 10 11 12 13 14 15 16 17 20 22 24 26 25
4 3 2 2 3 5 4 3 3 3 3 2 3 3 4 2 2 2 1 3 2 3 2 2 2 4 5 6 6 9 13 13 14 14 15 14 17 21 19 14 14 20 21 22

GFSNW_925_spd_129.txt.gz
Wind_Speed
35 34 30 27 26 23 18 6 4 14 25 5 2 7 6 5 4 4 5 2 4 3 1 2 6 9 7 3 7 8 3 4 3 7 1 2 2 5 5 3 5 5 4 16
38 36 35 34 29 27 15 4 2 8 9 8 6 3 7 3 2 7 5 7 7 4 3 1 1 2 4 3 4 9 7 2 1 5 5 2 3 3 3 2 2 11 6 9
40 37 36 34 32 31 22 3 4 2 2 1 15 11 10 12 5 4 2 2 2 3 3 3 3 2 6 5 2 6 7 3 6 8 4 3 3 5 6 6 3 5 9 11
37 44 38 34 35 32 21 4 5 4 7 12 12 9 6 17 9 6 8 4 6 4 4 3 4 2 2 4 4 4 4 5 3 2 4 3 4 5 12 9 11 8 15 11
37 27 38 35 32 34 16 4 4 0 1 7 20 10 14 12 14 8 13 4 6 7 8 9 7 6 2 3 3 3 3 2 3 4 6 7 10 14 15 14 15 12 8 22
38 39 36 37 37 31 7 11 5 3 8 7 13 21 20 16 3 6 11 6 6 8 12 8 7 10 7 7 10 5 4 5 3 5 2 5 6 11 11 5 6 7 10 10
42 41 39 39 40 40 12 6 3 3 3 9 16 20 21 13 9 13 3 10 8 2 5 4 8 6 4 8 5 5 6 6 3 2 2 3 7 3 4 6 8 8 2 3
41 40 40 41 42 41 27 13 6 3 3 11 11 15 13 14 9 4 8 14 5 8 6 1 2 3 2 4 4 5 5 5 2 2 3 7 10 4 4 5 6 6 8 11
44 42 42 41 42 43 29 24 20 4 2 8 12 11 7 7 9 7 5 0 3 6 2 2 6 5 4 5 3 4 4 3 4 3 3 4 4 2 3 3 5 7 9 14
46 44 42 41 43 46 35 15 29 4 3 4 7 7 13 6 5 3 5 5 2 3 4 3 3 4 5 5 7 5 3 1 7 4 4 7 5 5 4 4 5 8 12 15
47 46 44 44 44 43 39 26 29 18 1 6 3 5 5 4 6 5 4 3 1 1 4 4 4 3 5 3 6 7 8 7 4 4 6 11 5 4 6 4 2 6 7 11
50 48 47 46 46 44 40 15 26 29 3 4 12 12 6 11 7 5 6 4 5 5 3 3 2 1 1 5 3 3 4 6 5 9 6 3 4 2 1 3 4 5 10 11
51 49 48 46 45 44 44 20 27 17 4 7 8 6 8 5 12 17 5 2 5 4 5 4 3 2 3 3 4 3 1 2 3 2 4 5 4 1 2 3 5 6 8 15
54 51 48 46 44 41 41 27 29 22 3 2 4 9 9 3 7 24 15 9 4 6 3 3 2 2 3 3 3 3 4 5 5 5 4 4 7 6 5 3 5 9 10 11
55 53 50 46 43 39 38 26 28 27 5 4 3 6 2 3 7 14 19 15 5 3 3 2 2 2 2 1 1 2 5 6 5 6 5 3 4 4 7 7 6 11 14 10
56 53 49 47 41 39 29 3 22 31 15 2 2 5 3 2 7 9 6 4 3 3 4 3 3 3 4 3 3 3 3 2 2 3 2 2 1 5 4 6 9 9 10 13
57 54 49 44 41 35 9 4 17 25 21 3 2 2 2 3 5 3 3 6 1 2 2 2 3 2 3 2 3 4 2 5 2 4 6 3 3 4 7 7 10 14 14 16
56 51 45 41 41 26 8 3 40 24 7 3 2 2 1 2 2 2 2 2 2 3 3 2 3 1 2 2 5 2 3 4 4 6 3 3 6 7 8 14 14 11 11 13
51 46 45 41 21 6 3 16 37 26 4 3 2 4 3 4 2 2 1 1 2 2 2 2 3 1 3 6 6 5 8 6 5 3 4 6 7 9 10 12 11 12 12 11
55 50 11 3 17 19 28 11 2 3 4 3 4 3 3 4 3 2 3 0 3 2 2 2 2 3 3 3 5 5 8 6 10 6 3 5 8 10 11 11 10 10 11 16
28 3 3 22 29 8 1 3 2 3 3 3 4 4 7 1 3 2 1 2 1 3 3 4 2 3 3 2 3 4 6 7 7 2 4 6 7 10 9 9 12 15 17 17
11 17 25 7 3 2 3 3 2 4 5 1 4 4 4 3 3 3 1 2 2 3 1 3 3 3 2 5 4 4 6 7 7 7 7 8 9 11 11 12 14 17 18 22
21 6 4 3 1 3 5 4 2 1 3 3 3 5 3 3 2 2 2 3 3 1 2 3 4 2 4 4 5 5 4 6 6 5 9 12 13 15 17 16 19 22 20 22
4 4 5 2 2 1 3 2 3 3 4 9 7 3 2 2 3 1 4 2 2 2 0 5 2 5 5 5 5 6 5 5 6 7 11 12 12 11 17 23 26 24 19 22
4 4 3 1 2 3 2 1 2 1 3 5 4 3 3 2 4 2 3 2 2 4 4 2 2 2 5 5 3 6 6 6 6 8 7 9 13 13 13 18 23 23 24 24
3 4 2 3 3 3 3 2 3 0 3 3 3 3 4 1 4 2 4 5 5 3 2 1 2 1 3 5 4 4 7 8 8 9 12 13 13 13 14 17 19 23 26 24
3 2 1 2 2 3 2 3 2 2 3 2 3 4 3 2 2 1 3 4 3 2 2 2 2 2 4 5 6 6 9 10 12 13 13 12 14 18 17 12 13 19 20 21

GFSNW_925_spd_132.txt.gz
Wind_Speed
31 33 30 30 28 23 22 5 4 13 28 5 2 6 6 3 2 4 3 1 1 3 3 4 6 8 4 6 5 8 5 4 4 6 0 1 1 5 5 4 5 4 1 12
27 34 34 33 32 31 11 3 2 9 9 9 12 5 9 3 2 4 5 4 4 2 3 0 3 3 3 6 2 7 7 2 1 5 4 2 3 4 3 4 3 13 3 10
34 30 34 37 36 35 22 2 4 1 3 1 5 13 13 12 5 4 2 2 3 2 2 3 3 3 4 3 3 8 5 3 6 8 5 4 3 4 5 5 3 12 15 23
33 34 36 34 40 41 26 4 4 3 6 13 14 7 5 14 9 6 7 2 4 5 5 3 4 2 2 3 3 3 3 1 1 2 1 1 4 5 7 9 17 9 20 12
34 34 31 41 39 42 12 4 3 1 3 5 16 10 15 9 13 7 5 3 8 6 6 6 5 4 3 4 2 3 2 3 3 5 4 5 7 3 10 16 14 15 13 23
36 37 36 40 45 44 6 8 3 1 6 7 12 20 17 14 7 2 4 5 3 5 5 6 6 7 5 6 8 4 4 4 2 5 3 5 8 8 12 4 6 6 8 10
39 38 38 37 45 44 11 20 6 2 2 8 16 18 16 6 14 9 1 7 5 2 3 4 5 5 2 5 3 4 6 6 3 2 1 5 6 4 5 8 7 9 10 3
39 38 34 31 49 43 17 27 5 3 2 9 3 11 12 14 4 3 9 6 4 6 4 4 4 4 4 2 4 5 3 4 2 2 2 7 6 3 5 5 6 4 4 7
39 39 35 34 37 42 24 19 15 4 3 5 7 6 5 6 10 4 4 1 3 3 3 2 5 5 4 4 0 4 5 4 3 3 3 5 6 3 5 5 5 5 7 11
39 40 41 36 36 34 25 14 16 6 1 1 3 4 7 6 5 3 4 6 4 3 3 3 4 4 5 6 7 5 3 1 7 3 5 6 7 5 4 5 6 5 7 11
39 41 40 41 40 39 31 14 24 12 2 1 3 3 2 4 6 4 4 4 1 2 5 4 4 4 5 3 5 7 7 7 3 4 5 8 5 5 6 4 1 5 5 7
38 36 40 42 40 39 30 8 19 22 3 1 2 7 13 10 3 8 3 4 6 5 4 3 3 1 1 4 3 2 3 7 6 9 7 1 6 3 3 4 4 5 7 7
40 37 36 36 35 32 31 13 21 17 2 4 6 6 4 6 10 10 4 2 4 2 4 4 2 2 3 4 5 4 2 3 3 2 5 6 6 3 3 5 5 5 6 11
42 39 37 34 32 31 31 15 23 20 3 2 4 1 13 29 25 20 17 4 5 5 3 3 3 3 4 3 3 4 4 5 5 4 6 4 9 8 6 5 4 5 9 9
45 44 41 36 33 31 30 17 28 25 6 3 3 1 14 14 15 21 20 9 4 3 2 2 4 3 3 1 1 4 5 6 5 7 4 3 3 2 6 8 6 9 10 11
46 44 42 38 35 32 21 3 24 32 18 2 2 5 4 3 9 14 9 7 2 3 2 2 2 4 4 2 3 5 5 2 1 3 1 3 1 2 3 5 6 8 9 10
47 44 41 37 35 35 4 3 12 33 21 2 2 3 2 3 5 2 4 2 2 3 3 3 4 3 4 2 3 4 3 5 3 3 5 2 2 2 5 4 7 11 10 13
47 42 38 36 35 16 5 5 25 37 7 2 2 3 1 2 2 2 2 2 2 2 2 1 3 2 2 3 4 1 3 4 3 5 1 1 4 5 5 7 10 9 9 10
46 41 37 33 11 2 7 28 27 16 5 3 3 3 2 2 2 2 2 2 2 1 2 2 3 1 4 6 5 5 8 5 5 5 5 4 3 5 6 8 8 10 9 10
47 42 11 3 13 17 30 9 2 2 2 2 2 0 3 2 1 2 2 0 2 2 3 3 3 3 4 4 4 3 7 7 11 5 3 3 3 6 7 8 7 8 10 13
22 3 3 17 33 8 2 4 4 3 3 4 3 4 3 2 2 2 3 3 2 3 2 4 2 3 3 3 4 3 7 8 6 4 3 6 5 7 8 8 9 13 15 15
11 19 24 11 2 3 3 3 3 4 5 3 5 4 4 2 3 2 1 1 2 3 1 2 3 3 2 4 4 4 6 7 6 4 5 5 6 9 8 10 12 16 18 22
25 7 4 3 0 4 5 5 3 1 3 3 3 3 3 2 3 2 2 3 3 2 2 3 4 2 3 4 5 6 5 6 6 5 6 8 9 12 14 12 16 20 20 21
3 3 3 2 2 3 3 3 3 3 3 6 4 2 3 1 3 1 4 2 2 2 0 5 2 3 5 5 3 5 4 4 6 6 9 11 9 9 15 19 23 21 18 20
3 4 2 0 2 2 1 2 1 2 3 5 4 3 2 2 3 1 3 2 2 5 4 3 2 1 4 5 3 5 5 5 4 6 8 8 9 11 14 17 20 20 21 22
3 4 1 2 1 2 1 0 0 1 2 3 3 3 3 1 4 3 4 6 5 3 1 0 1 1 2 4 4 5 6 7 8 7 7 9 10 12 14 16 18 19 22 21
3 2 1 1 2 2 1 2 2 0 3 2 2 3 2 2 2 1 3 4 3 3 2 2 2 3 4 5 6 7 8 8 9 9 9 9 12 15 16 10 13 17 18 20